Regional Weather Roundup
Issued by NWS Little Rock, AR

Home | Current Version | Previous Version | Text Only | Print | Product List | Glossary Off
Versions: 1 2 3 4 5 6 7 8 9 10 11 12 13 14 15 16 17 18 19 20 21 22 23 24 25 26 27 28 29 30 31 32 33 34 35 36 37 38 39 40 41 42 43 44 45 46 47 48 49 50

000
ASUS44 KLZK 261105
RWRLZK

WEATHER ROUNDUP FOR ARKANSAS
NATIONAL WEATHER SERVICE LITTLE ROCK AR
500 AM CST SUN FEB 26 2017

NOTE: "FAIR" INDICATES FEW OR NO CLOUDS BELOW 12,000 FEET WITH NO
SIGNIFICANT WEATHER AND/OR OBSTRUCTIONS TO VISIBILITY.

ARZ001-003-010-029-261200-
NORTHWEST ARKANSAS

CITY           SKY/WX    TMP DP  RH WIND       PRES   REMARKS
FAYETTEVILLE   CLEAR     24  22  91 CALM      30.03F
FORT SMITH     PTCLDY    33  27  78 E5        30.06S WCI  29
HARRISON       CLEAR     27  19  72 SE5       30.05F WCI  22
BENTONVILLE    CLEAR     30  19  64 SE3       30.03S
ROGERS         CLEAR     31  22  69 SE8       30.03F WCI  23
SILOAM SPGS    CLEAR     28  18  64 E6        30.02S WCI  22
HIGHFILL       CLEAR     29  19  66 CALM      30.02S
$$

ARZ004-005-016-261200-
NORTH CENTRAL ARKANSAS

CITY           SKY/WX    TMP DP  RH WIND       PRES   REMARKS
BATESVILLE     CLEAR     27  21  80 CALM      30.14R
FLIPPIN        PTCLDY    25  19  80 CALM      30.07S
MTN HOME       CLEAR     31  16  54 S5        30.07F WCI  26
$$

ARZ040-041-261200-
WEST CENTRAL ARKANSAS

CITY           SKY/WX    TMP DP  RH WIND       PRES   REMARKS
MENA           CLEAR     30  28  93 CALM      30.06S
MOUNT IDA      CLEAR     27  24  89 CALM      30.06S FOG
$$

ARZ009-017-025-026-028-261200-
NORTHEAST ARKANSAS

CITY           SKY/WX    TMP DP  RH WIND       PRES   REMARKS
CORNING        FAIR      32  23  69 E5        30.16R WCI  27
JONESBORO      CLEAR     30  23  75 NE5       30.15F WCI  25
NEWPORT        CLEAR     28  27  96 MISG      30.14F
WALNUT RIDGE   CLEAR     30  21  69 CALM      30.15R
BLYTHEVILLE    CLEAR     32  24  72 SE8       30.18S WCI  25
$$

ARZ022-023-033-042-044-261200-
CENTRAL ARKANSAS

CITY           SKY/WX    TMP DP  RH WIND       PRES   REMARKS
LITTLE ROCK    PTCLDY    35  32  88 CALM      30.13S
N LITTLE ROCK    N/A     36  29  76 E5        30.14S
JACKSONVILLE   CLOUDY    30  28  91 CALM      30.11S
SEARCY         CLEAR     28  28 100 N3        30.15F
HOT SPRINGS    CLEAR     36  25  64 E6        30.10S
RUSSELLVILLE   CLEAR     28  26  92 CALM      30.09F
CLINTON        FAIR      27  25  93 CALM      30.13S
$$

ARZ036-261200-
EAST ARKANSAS

CITY           SKY/WX    TMP DP  RH WIND       PRES   REMARKS
WEST MEMPHIS   CLEAR     31  28  89 SE5       30.16F WCI  26
$$

ARZ050-053-066-070-073-261200-
SOUTHWEST ARKANSAS

CITY           SKY/WX    TMP DP  RH WIND       PRES   REMARKS
ARKADELPHIA    FAIR      30  29  96 CALM      30.13S
CAMDEN         CLEAR     28  27  93 SE3       30.13S
TEXARKANA      CLEAR     39  27  62 SE7       30.07F
EL DORADO      PTCLDY    36  28  73 SE6       30.12F
DE QUEEN       CLEAR     32  30  92 E5        30.06F WCI  27
$$

ARZ056-057-069-261200-
SOUTHEAST ARKANSAS

CITY           SKY/WX    TMP DP  RH WIND       PRES   REMARKS
PINE BLUFF     PTCLDY    34  29  82 SE7       30.13S WCI  28
STUTTGART      CLEAR     37  23  56 E7        30.13F
MONTICELLO     PTCLDY    35  27  72 SE6       30.13F WCI  30

$$





USA.gov is the U.S. government's official web portal to all federal, state and local government web resources and services.